Weather History for Puerto Barrios, Guatemala

Change the Weather History Date:

Friday, January 25, 2013

  Actual Average Record
Temperature  
Mean Temperature 71 °F -  
Max Temperature 77 °F 80 °F 87 °F (1997)
Min Temperature 65 °F 67 °F 62 °F (2004)
Cooling Degree Days 6    
Growing Degree Days 21 (Base 50)    
Moisture  
Dew Point 67 °F    
Average Humidity 88    
Maximum Humidity 100    
Minimum Humidity 62    
Precipitation  
Precipitation 0.02 in - - ()
Sea Level Pressure  
Sea Level Pressure 30.09 in    
Wind  
Wind Speed 1 mph ()    
Max Wind Speed 7 mph    
Max Gust Speed -    
Visibility 6.1 miles    
Events      
Averages and records for this station are not official NWS values.
T = Trace of Precipitation, MM = Missing Value Source: Averaged Metar Reports

Daily Weather History Graph

Daily Weather History Graph

Search for Another Location

Airport:

Trip Planner

Search our weather history database for the weather conditions in past years. The results will help you decide how hot, cold, wet, or windy it might be!

Date:

Astronomy

Jan. 25, 2013 Rise Set
Actual Time 6:25 AM CST 5:48 PM CST
Civil Twilight 6:02 AM CST 6:11 PM CST
Nautical Twilight 5:36 AM CST 6:37 PM CST
Astronomical Twilight 5:10 AM CST 7:03 PM CST
Moon 4:44 PM CST (1/25) 5:03 AM CST (1/25)
Length of Visible Light 12h 08m
Length of Day
11h 23m
Waxing Gibbous, 98% of the Moon is Illuminated
Jan 25
Waxing Gibbous
Jan 26
Full
Feb 3
Last Quarter
Feb 10
New
Feb 17
First Quarter

Hourly Weather History & Observations

Time (CST) Temp. Dew Point Humidity Pressure Visibility Wind Dir Wind Speed Gust Speed Precip Events Conditions
12:00 AM 68.0 °F 66.2 °F 94% 30.15 in 6.2 mi West 4.6 mph - N/A   Overcast
1:00 AM 68.0 °F 64.4 °F 88% 30.15 in 6.2 mi Calm Calm - N/A   Overcast
2:00 AM 68.0 °F 64.4 °F 88% 30.12 in 6.2 mi Calm Calm - N/A   Overcast
3:00 AM 68.0 °F 66.2 °F 94% 30.09 in 6.2 mi Calm Calm - N/A   Overcast
4:00 AM 68.0 °F 68.0 °F 100% 30.09 in 6.2 mi Calm Calm - N/A   Overcast
5:00 AM 66.2 °F 66.2 °F 100% 30.09 in 6.2 mi Calm Calm - N/A   Overcast
6:00 AM 67 °F 66 °F 96% 29.55 in 5 mi Calm Calm - -   Mist
6:00 AM 66.2 °F 66.2 °F 100% 30.12 in 5.0 mi Calm Calm - N/A   Overcast
6:25 AM - - N/A% - 6.2 mi Calm Calm - N/A   Overcast
7:00 AM 66.2 °F 66.2 °F 100% 30.12 in 6.2 mi Calm Calm - N/A   Overcast
8:00 AM 68.0 °F 66.2 °F 94% 30.12 in 6.2 mi Calm Calm - N/A   Overcast
9:00 AM 68.0 °F 68.0 °F 100% 30.15 in 6.2 mi Calm Calm - N/A   Overcast
10:00 AM 71.6 °F 68.0 °F 88% 30.15 in 6.2 mi Calm Calm - N/A   Overcast
11:00 AM 73.4 °F 69.8 °F 88% 30.15 in 6.2 mi Calm Calm - N/A   Overcast
12:00 PM 76 °F 65 °F 62% 30.14 in 25 mi Calm Calm - -   Partly Cloudy
12:00 PM 75.2 °F 66.2 °F 73% 30.12 in 6.2 mi Calm Calm - N/A   Mostly Cloudy
1:00 PM 75.2 °F 66.2 °F 73% 30.09 in 6.2 mi Calm Calm - N/A   Overcast
2:00 PM 77.0 °F 66.2 °F 69% 30.06 in 6.2 mi Calm Calm - N/A   Mostly Cloudy
3:00 PM 77.0 °F 68.0 °F 74% 30.06 in 6.2 mi Calm Calm - N/A   Mostly Cloudy
4:00 PM 77.0 °F 68.0 °F 74% 30.06 in 6.2 mi Calm Calm - N/A   Mostly Cloudy
5:00 PM 75.2 °F 68.0 °F 78% 30.06 in 6.2 mi Calm Calm - N/A   Mostly Cloudy
7:00 PM 71.6 °F 69.8 °F 94% 30.06 in - North - - N/A   Overcast
8:00 PM 69.8 °F 68.0 °F 94% 30.09 in 6.2 mi North 6.9 mph - N/A   Overcast
9:00 PM 69.8 °F 68.0 °F 94% 30.12 in 5.0 mi North 6.9 mph - N/A   Light Drizzle
10:00 PM 69.8 °F 68.0 °F 94% 30.12 in 6.2 mi Calm Calm - N/A   Overcast
11:00 PM 68.0 °F 66.2 °F 94% 30.12 in 6.2 mi Calm Calm - N/A   Overcast